Weather History for Venice, FL

Change the Weather History Date:

Monday, February 17, 2014

  Actual Average Record
Temperature  
Mean Temperature 60 °F -  
Max Temperature 75 °F 74 °F 83 °F (1989)
Min Temperature 46 °F 54 °F 36 °F (1958)
Degree Days  
Heating Degree Days 4    
Growing Degree Days 10 (Base 50)    
Moisture  
Dew Point 50 °F    
Average Humidity 72    
Maximum Humidity 94    
Minimum Humidity 40    
Precipitation  
Precipitation 0.00 in - - ()
Sea Level Pressure  
Sea Level Pressure 30.21 in    
Wind  
Wind Speed 7 mph (NE)    
Max Wind Speed 10 mph    
Max Gust Speed -    
Visibility 10 miles    
Events      
Averages and records for this station are not official NWS values.
T = Trace of Precipitation, MM = Missing Value Source: NWS Daily Summary

Daily Weather History Graph

Daily Weather History Graph

Search for Another Location

Airport:

Trip Planner

Search our weather history database for the weather conditions in past years. The results will help you decide how hot, cold, wet, or windy it might be!

Date:

Astronomy

Feb. 17, 2014 Rise Set
Actual Time 7:04 AM EST 6:23 PM EST
Civil Twilight 6:40 AM EST 6:46 PM EST
Nautical Twilight 6:13 AM EST 7:14 PM EST
Astronomical Twilight 5:46 AM EST 7:41 PM EST
Moon 8:56 PM EST (2/17) 8:22 AM EST (2/17)
Length of Visible Light 12h 05m
Length of Day
11h 18m
Waning Gibbous, 93% of the Moon is Illuminated
Feb 17
Waning Gibbous
Feb 22
Last Quarter
Mar 1
New
Mar 8
First Quarter
Mar 16
Full

Hourly Weather History & Observations

Time (EST) Temp. Windchill Dew Point Humidity Pressure Visibility Wind Dir Wind Speed Gust Speed Precip Events Conditions
12:15 AM 51.8 °F - 46.4 °F 82% 30.20 in 10.0 mi NNE 5.8 mph - N/A   Clear
12:35 AM 51.8 °F - 46.4 °F 82% 30.20 in 10.0 mi NE 4.6 mph - N/A   Clear
12:55 AM 50.0 °F - 46.4 °F 87% 30.19 in 10.0 mi NE 4.6 mph - N/A   Clear
1:15 AM 50.0 °F - 46.4 °F 87% 30.19 in 10.0 mi ENE 6.9 mph - N/A   Clear
1:35 AM 48.2 °F - 46.4 °F 93% 30.19 in 10.0 mi ENE 8.1 mph - N/A   Clear
1:55 AM 48.2 °F - 46.4 °F 93% 30.19 in 10.0 mi NE 5.8 mph - N/A   Clear
2:15 AM 48.2 °F - 46.4 °F 93% 30.19 in 10.0 mi ENE 6.9 mph - N/A   Clear
2:35 AM 48.2 °F - 46.4 °F 93% 30.19 in 10.0 mi NE 8.1 mph - N/A   Clear
2:55 AM 48.2 °F - 46.4 °F 93% 30.19 in 10.0 mi ENE 8.1 mph - N/A   Clear
3:15 AM 48.2 °F - 44.6 °F 87% 30.19 in 10.0 mi ENE 8.1 mph - N/A   Clear
3:35 AM 48.2 °F - 44.6 °F 87% 30.19 in 10.0 mi NE 6.9 mph - N/A   Clear
3:55 AM 48.2 °F - 44.6 °F 87% 30.19 in 10.0 mi ENE 8.1 mph - N/A   Clear
4:15 AM 48.2 °F - 44.6 °F 87% 30.19 in 10.0 mi NE 8.1 mph - N/A   Clear
4:35 AM 48.2 °F - 44.6 °F 87% 30.19 in 10.0 mi NE 6.9 mph - N/A   Clear
4:55 AM 48.2 °F - 42.8 °F 82% 30.20 in 10.0 mi ENE 6.9 mph - N/A   Clear
5:15 AM 46.4 °F 42.4 °F 42.8 °F 87% 30.20 in 10.0 mi ENE 8.1 mph - N/A   Clear
5:35 AM 46.4 °F 42.4 °F 41.0 °F 81% 30.20 in 10.0 mi NE 8.1 mph - N/A   Clear
5:55 AM 46.4 °F 41.9 °F 41.0 °F 81% 30.20 in 10.0 mi NE 9.2 mph - N/A   Clear
6:15 AM 46.4 °F 41.9 °F 41.0 °F 81% 30.21 in 10.0 mi ENE 9.2 mph - N/A   Clear
6:35 AM 46.4 °F 42.4 °F 41.0 °F 81% 30.21 in 10.0 mi ENE 8.1 mph - N/A   Clear
6:55 AM 46.4 °F 41.9 °F 41.0 °F 81% 30.22 in 10.0 mi NE 9.2 mph - N/A   Clear
7:15 AM 48.2 °F - 41.0 °F 76% 30.22 in 10.0 mi ENE 9.2 mph - N/A   Clear
7:35 AM 48.2 °F - 41.0 °F 76% 30.23 in 10.0 mi NE 8.1 mph - N/A   Clear
7:55 AM 50.0 °F - 41.0 °F 71% 30.23 in 10.0 mi ENE 8.1 mph - N/A   Clear
8:15 AM 53.6 °F - 41.0 °F 62% 30.24 in 10.0 mi ENE 9.2 mph - N/A   Clear
8:35 AM 55.4 °F - 41.0 °F 58% 30.24 in 10.0 mi ENE 8.1 mph - N/A   Clear
8:55 AM 57.2 °F - 39.2 °F 51% 30.24 in 10.0 mi ENE 9.2 mph - N/A   Clear
9:15 AM 60.8 °F - 39.2 °F 45% 30.25 in 10.0 mi East 8.1 mph - N/A   Unknown
9:35 AM 64.4 °F - 39.2 °F 40% 30.25 in 10.0 mi ENE 8.1 mph - N/A   Unknown
9:55 AM 66.2 °F - 41.0 °F 40% 30.25 in 9.0 mi ENE 10.4 mph - N/A   Unknown
10:15 AM 68.0 °F - 42.8 °F 40% 30.25 in 10.0 mi ENE 9.2 mph - N/A   Unknown
10:35 AM 68.0 °F - 44.6 °F 43% 30.25 in 10.0 mi ENE 9.2 mph - N/A   Unknown
10:55 AM 71.6 °F - 46.4 °F 41% 30.24 in 10.0 mi East 8.1 mph - N/A   Clear
11:15 AM 71.6 °F - 50.0 °F 46% 30.24 in 10.0 mi East 9.2 mph - N/A   Clear
11:35 AM 73.4 °F - 50.0 °F 44% 30.23 in 10.0 mi SSE 8.1 mph - N/A   Clear
11:55 AM 73.4 °F - 50.0 °F 44% 30.22 in 9.0 mi ESE 4.6 mph - N/A   Clear
12:15 PM 75.2 °F - 50.0 °F 41% 30.21 in 10.0 mi SSE 5.8 mph - N/A   Clear
12:35 PM 73.4 °F - 53.6 °F 50% 30.21 in 10.0 mi SSW 9.2 mph - N/A   Clear
12:55 PM 73.4 °F - 55.4 °F 53% 30.21 in 10.0 mi SW 9.2 mph - N/A   Clear
1:15 PM 73.4 °F - 55.4 °F 53% 30.20 in 10.0 mi WSW 6.9 mph - N/A   Clear
1:35 PM 71.6 °F - 53.6 °F 53% 30.19 in 10.0 mi WSW 8.1 mph - N/A   Clear
1:55 PM 71.6 °F - 55.4 °F 57% 30.18 in 10.0 mi WSW 8.1 mph - N/A   Clear
2:15 PM 71.6 °F - 57.2 °F 60% 30.18 in 10.0 mi WSW 8.1 mph - N/A   Clear
2:35 PM 71.6 °F - 57.2 °F 60% 30.17 in 10.0 mi WSW 8.1 mph - N/A   Clear
2:55 PM 71.6 °F - 57.2 °F 60% 30.17 in 8.0 mi West 9.2 mph - N/A   Clear
3:15 PM 71.6 °F - 57.2 °F 60% 30.17 in 10.0 mi West 6.9 mph - N/A   Clear
3:35 PM 71.6 °F - 57.2 °F 60% 30.17 in 10.0 mi West 8.1 mph - N/A   Clear
3:55 PM 71.6 °F - 59.0 °F 64% 30.18 in 10.0 mi West 8.1 mph - N/A   Clear
4:15 PM 69.8 °F - 59.0 °F 68% 30.18 in 10.0 mi West 9.2 mph - N/A   Clear
4:35 PM 69.8 °F - 59.0 °F 68% 30.19 in 10.0 mi West 8.1 mph - N/A   Clear
4:55 PM 69.8 °F - 59.0 °F 68% 30.19 in 10.0 mi West 8.1 mph - N/A   Clear
5:15 PM 68.0 °F - 59.0 °F 73% 30.19 in 10.0 mi West 6.9 mph - N/A   Clear
5:35 PM 68.0 °F - 59.0 °F 73% 30.19 in 10.0 mi WNW 6.9 mph - N/A   Clear
5:55 PM 68.0 °F - 59.0 °F 73% 30.20 in 10.0 mi WNW 8.1 mph - N/A   Clear
6:15 PM 66.2 °F - 59.0 °F 78% 30.19 in 10.0 mi NW 5.8 mph - N/A   Clear
6:35 PM 66.2 °F - 59.0 °F 78% 30.19 in 10.0 mi NW 4.6 mph - N/A   Clear
6:55 PM 66.2 °F - 59.0 °F 78% 30.19 in 10.0 mi NNW 3.5 mph - N/A   Clear
7:15 PM 64.4 °F - 59.0 °F 83% 30.19 in 10.0 mi North 3.5 mph - N/A   Clear
7:35 PM 62.6 °F - 57.2 °F 82% 30.20 in 10.0 mi Calm Calm - N/A   Clear
7:55 PM 62.6 °F - 57.2 °F 82% 30.20 in 10.0 mi Calm Calm - N/A   Clear
8:15 PM 60.8 °F - 57.2 °F 88% 30.20 in 10.0 mi Calm Calm - N/A   Clear
8:35 PM 59.0 °F - 57.2 °F 94% 30.20 in 10.0 mi Calm Calm - N/A   Clear
8:55 PM 59.0 °F - 57.2 °F 94% 30.20 in 10.0 mi Calm Calm - N/A   Clear
9:15 PM 59.0 °F - 57.2 °F 94% 30.20 in 10.0 mi Calm Calm - N/A   Clear
9:35 PM 60.8 °F - 57.2 °F 88% 30.21 in 10.0 mi NNE 3.5 mph - N/A   Unknown
9:55 PM 59.0 °F - 55.4 °F 88% 30.22 in 10.0 mi East 6.9 mph - N/A   Unknown
10:15 PM 60.8 °F - 55.4 °F 82% 30.22 in 10.0 mi NNE 4.6 mph - N/A   Unknown
10:35 PM 59.0 °F - 53.6 °F 82% 30.22 in 10.0 mi NE 3.5 mph - N/A   Unknown
10:55 PM 59.0 °F - 53.6 °F 82% 30.21 in 10.0 mi ENE 3.5 mph - N/A   Clear
11:15 PM 57.2 °F - 53.6 °F 88% 30.22 in 10.0 mi North 4.6 mph - N/A   Clear
11:35 PM 57.2 °F - 53.6 °F 88% 30.22 in 10.0 mi NE 3.5 mph - N/A   Clear
11:55 PM 57.2 °F - 53.6 °F 88% 30.22 in 10.0 mi ENE 4.6 mph - N/A   Clear